Desert Center, CA

11:14 AM PST on December 10, 2016 (GMT -0800)
Blythe

Weather History for KBLH - December, 2011

Change the Weather History Date:

Saturday, December 10, 2011

  Actual Average Record
Temperature  
Mean Temperature 54 °F -  
Max Temperature 70 °F 66 °F 78 °F (1973)
Min Temperature 39 °F 41 °F 26 °F (1971)
Degree Days  
Heating Degree Days 10    
Growing Degree Days 4 (Base 50)    
Moisture  
Dew Point 15 °F    
Average Humidity 24    
Maximum Humidity 36    
Minimum Humidity 13    
Precipitation  
Precipitation 0.00 in - - ()
Sea Level Pressure  
Sea Level Pressure 30.09 in    
Wind  
Wind Speed 4 mph (NW)    
Max Wind Speed 9 mph    
Max Gust Speed -    
Visibility 10 miles    
Events      
Averages and records for this station are not official NWS values.
T = Trace of Precipitation, MM = Missing Value Source: NWS Daily Summary

Daily Weather History Graph

Daily Weather History Graph

Search for Another Location

Airport or City:

Trip Planner

Search our weather history database for the weather conditions in past years. The results will help you decide how hot, cold, wet, or windy it might be!

Date:

Astronomy

Dec. 10, 2011 Rise Set
Actual Time 6:32 AM PST 4:30 PM PST
Civil Twilight 6:04 AM PST 4:58 PM PST
Nautical Twilight 5:33 AM PST 5:29 PM PST
Astronomical Twilight 5:03 AM PST 5:59 PM PST
Moon 4:49 PM PST 6:35 AM PST
Length of Visible Light 10h 53m
Length of Day
9h 58m
Full, 100% of the Moon is Illuminated
Dec 10
Full
Dec 17
Last Quarter
Dec 24
New
Dec 31
First Quarter
Jan 8
Full

Hourly Weather History & Observations

Time (PST) Temp. Windchill Dew Point Humidity Pressure Visibility Wind Dir Wind Speed Gust Speed Precip Events Conditions
12:52 AM 48.9 °F - 16.0 °F 27% 30.15 in 10.0 mi WSW 6.9 mph - N/A   Clear
1:52 AM 48.0 °F - 15.1 °F 27% 30.14 in 10.0 mi NW 3.5 mph - N/A   Clear
2:52 AM 43.0 °F 39.5 °F 15.1 °F 32% 30.15 in 10.0 mi SW 5.8 mph - N/A   Clear
3:52 AM 44.1 °F - 15.1 °F 31% 30.14 in 10.0 mi Calm Calm - N/A   Clear
4:52 AM 39.9 °F 37.8 °F 15.1 °F 36% 30.14 in 10.0 mi NE 3.5 mph - N/A   Clear
5:52 AM 39.9 °F - 14.0 °F 35% 30.15 in 10.0 mi Calm Calm - N/A   Clear
6:52 AM 45.0 °F - 15.1 °F 30% 30.16 in 10.0 mi Calm Calm - N/A   Clear
7:52 AM 46.9 °F - 15.1 °F 28% 30.16 in 10.0 mi Calm Calm - N/A   Clear
8:52 AM 52.0 °F - 16.0 °F 24% 30.17 in 10.0 mi Calm Calm - N/A   Clear
9:52 AM 55.0 °F - 16.0 °F 22% 30.17 in 10.0 mi WSW 9.2 mph - N/A   Clear
10:52 AM 59.0 °F - 16.0 °F 19% 30.14 in 10.0 mi WSW 4.6 mph - N/A   Clear
11:52 AM 64.0 °F - 16.0 °F 16% 30.10 in 10.0 mi Calm Calm - N/A   Clear
12:52 PM 66.9 °F - 18.0 °F 15% 30.06 in 10.0 mi ENE 3.5 mph - N/A   Clear
2:52 PM 70.0 °F - 16.0 °F 13% 30.02 in 10.0 mi NNW 5.8 mph - N/A   Clear
3:52 PM 68.0 °F - 16.0 °F 14% 30.02 in 10.0 mi NNW 8.1 mph - N/A   Clear
4:52 PM 62.1 °F - 15.1 °F 16% 30.02 in 10.0 mi NNW 6.9 mph - N/A   Clear
5:52 PM 57.0 °F - 14.0 °F 18% 30.02 in 10.0 mi NW 4.6 mph - N/A   Clear
6:52 PM 55.0 °F - 14.0 °F 20% 30.02 in 10.0 mi North 6.9 mph - N/A   Clear
7:52 PM 54.0 °F - 14.0 °F 21% 30.03 in 10.0 mi West 4.6 mph - N/A   Clear
8:52 PM 53.1 °F - 14.0 °F 21% 30.02 in 10.0 mi Calm Calm - N/A   Clear
9:52 PM 46.9 °F - 12.0 °F 24% 30.02 in 10.0 mi West 3.5 mph - N/A   Clear
10:52 PM 44.1 °F 41.5 °F 14.0 °F 30% 30.01 in 10.0 mi North 4.6 mph - N/A   Clear
11:52 PM 41.0 °F 39.0 °F 12.9 °F 32% 29.99 in 10.0 mi NNE 3.5 mph - N/A   Clear